Regional Weather Roundup
Issued by NWS Burlington, VT

Home | Current Version | Previous Version | Text Only | Print | Product List | Glossary On
Versions: 1 2 3 4 5 6 7 8 9 10 11 12 13 14 15 16 17 18 19 20 21 22 23 24 25 26 27 28 29 30 31 32 33 34 35 36 37 38 39 40 41 42 43 44 45 46 47 48 49 50
000
ASUS41 KBTV 010730
RWRBTV
VERMONT REGIONAL WEATHER ROUNDUP
NATIONAL WEATHER SERVICE BURLINGTON VT
200 AM EST SUN FEB 01 2015

NOTE: "FAIR" INDICATES FEW OR NO CLOUDS BELOW 12,000 FEET WITH NO
SIGNIFICANT WEATHER AND/OR OBSTRUCTIONS TO VISIBILITY.

* THESE REPORTS ARE NOT UNDER NWS QUALITY CONTROL AND/OR DO NOT
  REPORT WEATHER SUCH AS PRECIPITATION AND FOG.

VTZ001>019-010800-
_____VERMONT_____


CITY           SKY/WX    TMP DP  RH WIND       PRES   REMARKS
BURLINGTON     CLOUDY     5  -4  66 S5        30.10F
MONTPELIER     LGT SNOW  -4  -9  79 SE3       30.03F
MORRISVILLE    LGT SNOW  -3  -9  75 S3        30.06F
ST. JOHNSBURY*   N/A    -13 -17  82 MISG      30.06F
LYNDONVILLE*   FAIR      -9 -15  74 CALM      30.01F
MIDDLEBURY*    CLOUDY    -1  -6  78 CALM      30.09S
RUTLAND*       CLOUDY    -6  -8  92 CALM      30.05F
SPRINGFIELD    MOSUNNY    8  -5  55 VRB3      30.06F
HIGHGATE*      LGT SNOW   1  -3  80 CALM      30.11S
NEWPORT*       LGT SNOW  -5 -10  78 CALM      30.02F
BENNINGTON     CLOUDY     2  -3  80 S3        30.07S
SUTTON*          N/A     -8 N/A N/A MISG        N/A
GALLUP MILLS*    N/A    -15 N/A N/A MISG        N/A
UNION VILLAGE*   N/A     -9 N/A N/A MISG        N/A
MT. MANSFIELD*   N/A      1 N/A N/A CALM        N/A

_____LAKE CHAMPLAIN_____


CITY           SKY/WX    TMP DP  RH WIND       PRES   REMARKS
BURTON ISLAND*   N/A      7   3  85 S5          N/A
COLCHESTER RF*   N/A     14   7  73 S14         N/A  WCI  -1
DIAMOND ISL*     N/A      5  -2  72 S3          N/A

$$

NYZ007-026>031-035-052-083-010800-
_____NORTHERN NEW YORK_____


CITY           SKY/WX    TMP DP  RH WIND       PRES   REMARKS
PLATTSBURGH    CLOUDY    12   6  77 CALM      30.10S
SARANAC LAKE   LGT SNOW   6   2  83 W3        29.96S FOG
MASSENA        LGT SNOW   8   4  83 W6        30.15R FOG
OGDENSBURG*    LGT SNOW  10   9  92 CALM      30.14R
POTSDAM*       LGT SNOW  10   9  92 CALM      30.12R
STARK FALLS*     N/A      9 N/A N/A NW2         N/A
WATERTOWN      FLURRIES  21  15  78 SW6       30.11S
FT DRUM        FLURRIES  19  15  85 W6        30.07S
ALBANY         FLURRIES  15   6  67 NW6       30.14S
GLENS FALLS    CLOUDY    -2  -8  76 CALM      30.12F

$$
NHZ002-005-011-010800-
_____NEW HAMPSHIRE_____


CITY           SKY/WX    TMP DP  RH WIND       PRES   REMARKS
LEBANON        MOSUNNY   -7 -12  79 CALM      30.06S
KEENE          MOSUNNY   -2  -8  78 CALM      30.04R
MT WASHINGTON  ICE FOG  -11 -11 100 NW72G83     N/A  VSB 1/16WCI -52
PLYMOUTH       FAIR       7  -1  70 W13G23    30.00F WCI -10
WHITEFIELD     CLOUDY   -15 -20  78 CALM      30.02S

$$

_____REGIONAL QUEBEC LOCATIONS_____


CITY           SKY/WX    TMP DP  RH WIND       PRES   REMARKS
MONTREAL       FLURRIES   5   0  78 W10       30.12S WCI -10
QUEBEC CITY    MOSUNNY    0  -8  71 SW14      30.00S WCI -19
SHERBROOKE     LGT SNOW  -9 -13  84 S2        30.02S

_____REGIONAL ONTARIO LOCATIONS_____


CITY           SKY/WX    TMP DP  RH WIND       PRES   REMARKS
OTTAWA         PTSUNNY    5   1  85 NW6       30.13R

______KEY______
VSB  - VISIBILITY IN MILES
WCI  - WIND CHILL INDEX
HX   - HEAT INDEX
$$



USA.gov is the U.S. government's official web portal to all federal, state and local government web resources and services.